EW5196 Weather Reports


Display with metric or nautical units.
time (UTC)temp
F
wind
direction
speed
MPH
gust
MPH
rain 1hr
in
rain 24hr
in
rain mn
in
humidity
%
barometer
mb
20260508173647 68 168 3.0 4.0 0.00 0.00 0.00 36 1016.8
20260508173143 68 119 1.0 3.0 0.00 0.00 0.00 34 1017.0
20260508172640 68 159 2.0 5.0 0.00 0.00 0.00 32 1017.0
20260508172137 68 151 2.0 3.0 0.00 0.00 0.00 35 1017.2
20260508171633 68 157 3.0 3.0 0.00 0.00 0.00 35 1017.1
20260508171130 68 123 2.0 3.0 0.00 0.00 0.00 37 1017.2
20260508170627 67 217 1.0 3.0 0.00 0.00 0.00 37 1017.4
20260508170125 67 174 1.0 5.0 0.00 0.00 0.00 31 1017.4
20260508165622 67 187 3.0 5.0 0.00 0.00 0.00 36 1017.5
20260508165118 66 153 3.0 5.0 0.00 0.00 0.00 38 1017.4
20260508164614 66 231 3.0 3.0 0.00 0.00 0.00 38 1017.7
20260508164112 66 141 2.0 3.0 0.00 0.00 0.00 38 1017.9
20260508163609 66 127 2.0 3.0 0.00 0.00 0.00 42 1017.8
20260508163106 65 43 2.0 3.0 0.00 0.00 0.00 40 1017.9
20260508162602 65 121 3.0 3.0 0.00 0.00 0.00 41 1017.8
20260508162100 66 154 1.0 2.0 0.00 0.00 0.00 39 1018.0
20260508161556 65 88 0.0 4.0 0.00 0.00 0.00 44 1018.3
20260508161054 65 235 2.0 3.0 0.00 0.00 0.00 41 1018.1
20260508160552 65 92 2.0 3.0 0.00 0.00 0.00 43 1018.1
20260508160049 64 165 2.0 3.0 0.00 0.00 0.00 41 1018.2
20260508155546 64 125 1.0 3.0 0.00 0.00 0.00 43 1018.2
20260508155043 64 140 1.0 4.0 0.00 0.00 0.00 44 1018.7
20260508154540 64 149 2.0 4.0 0.00 0.00 0.00 45 1018.5
20260508154037 64 136 3.0 3.0 0.00 0.00 0.00 43 1018.4
20260508153533 63 138 1.0 4.0 0.00 0.00 0.00 44 1018.5
20260508153030 64 243 2.0 4.0 0.00 0.00 0.00 40 1018.9
20260508152527 63 146 2.0 3.0 0.00 0.00 0.00 40 1018.7
20260508152022 62 146 3.0 4.0 0.00 0.00 0.00 42 1018.7
20260508151520 62 254 0.0 3.0 0.00 0.00 0.00 38 1018.8
20260508151016 62 146 2.0 3.0 0.00 0.00 0.00 39 1019.0
20260508150514 62 159 2.0 2.0 0.00 0.00 0.00 39 1018.9
20260508150009 62 143 0.0 1.0 0.00 0.00 0.00 35 1019.0
20260508145506 62 169 2.0 3.0 0.00 0.00 0.00 37 1019.1
20260508145002 62 139 3.0 3.0 0.00 0.00 0.00 37 1018.9
20260508144500 62 177 3.0 4.0 0.00 0.00 0.00 35 1019.1
20260508143957 62 187 2.0 3.0 0.00 0.00 0.00 38 1019.0
20260508143455 62 127 0.0 3.0 0.00 0.00 0.00 43 1019.0
20260508142951 62 169 2.0 3.0 0.00 0.00 0.00 43 1018.9
20260508142448 63 138 2.0 3.0 0.00 0.00 0.00 44 1018.9
20260508141944 63 143 2.0 3.0 0.00 0.00 0.00 46 1019.0
20260508141441 62 164 1.0 2.0 0.00 0.00 0.00 48 1019.0
20260508140939 62 145 3.0 3.0 0.00 0.00 0.00 47 1019.1
20260508140436 61 158 1.0 3.0 0.00 0.00 0.00 51 1018.9
20260508135931 59 196 1.0 2.0 0.00 0.00 0.00 57 1018.8
20260508135428 57 185 1.0 2.0 0.00 0.00 0.00 59 1018.9
20260508134925 57 142 2.0 3.0 0.00 0.00 0.00 65 1019.1
20260508134421 56 176 0.0 2.0 0.00 0.00 0.00 65 1019.0
20260508133918 56 184 2.0 3.0 0.00 0.00 0.00 73 1019.2
20260508133416 55 137 2.0 3.0 0.00 0.00 0.00 73 1019.1
20260508132912 55 128 2.0 3.0 0.00 0.00 0.00 81 1019.2
20260508132410 54 142 2.0 2.0 0.00 0.00 0.00 86 1019.0
20260508131907 53 140 2.0 2.0 0.00 0.00 0.00 91 1019.2
20260508131402 52 148 2.0 3.0 0.00 0.00 0.00 99 1019.0
20260508130859 52 150 2.0 2.0 0.00 0.00 0.00 99 1019.0
20260508130356 52 163 1.0 2.0 0.00 0.00 0.00 99 1018.9
20260508125852 51 152 2.0 2.0 0.00 0.00 0.00 99 1019.2
20260508125348 51 140 2.0 2.0 0.00 0.00 0.00 99 1019.1
20260508124846 51 150 2.0 2.0 0.00 0.00 0.00 99 1019.1
20260508124343 51 159 1.0 2.0 0.00 0.00 0.00 99 1019.1
20260508123841 50 148 2.0 2.0 0.00 0.00 0.00 99 1019.1
20260508123340 50 158 2.0 3.0 0.00 0.00 0.00 99 1018.8
20260508122836 50 151 2.0 3.0 0.00 0.00 0.00 99 1018.9
20260508122332 49 153 2.0 2.0 0.00 0.00 0.00 99 1019.1
20260508121830 49 160 2.0 2.0 0.00 0.00 0.00 99 1018.9
20260508121328 48 162 2.0 2.0 0.00 0.00 0.00 99 1018.8
20260508120826 47 161 1.0 2.0 0.00 0.00 0.00 99 1018.6
20260508120323 46 157 2.0 2.0 0.00 0.00 0.00 99 1018.6
20260508115820 46 157 2.0 2.0 0.00 0.00 0.00 99 1018.6
20260508115318 46 151 2.0 2.0 0.00 0.00 0.00 99 1018.5
20260508114814 45 168 2.0 2.0 0.00 0.00 0.00 99 1018.4
20260508114311 44 172 2.0 3.0 0.00 0.00 0.00 99 1018.2
20260508113808 43 149 2.0 2.0 0.00 0.00 0.00 99 1018.3
20260508113306 42 156 2.0 2.0 0.00 0.00 0.00 99 1018.2
20260508112802 42 152 2.0 2.0 0.00 0.00 0.00 99 1018.3
20260508112259 42 155 2.0 2.0 0.00 0.00 0.00 99 1018.2
20260508111755 42 157 2.0 2.0 0.00 0.00 0.00 99 1018.0
20260508111254 41 144 2.0 2.0 0.00 0.00 0.00 99 1018.0
20260508110750 41 140 2.0 2.0 0.00 0.00 0.00 99 1017.6
20260508110248 41 154 2.0 2.0 0.00 0.00 0.00 99 1017.7
20260508105742 41 145 2.0 3.0 0.00 0.00 0.00 99 1017.7
20260508105238 41 158 2.0 2.0 0.00 0.00 0.00 99 1017.6
20260508104736 41 141 2.0 2.0 0.00 0.00 0.00 99 1017.5
20260508104233 41 150 2.0 3.0 0.00 0.00 0.00 99 1017.5
20260508103730 41 154 2.0 3.0 0.00 0.00 0.00 99 1017.3
20260508103227 42 148 2.0 2.0 0.00 0.00 0.00 99 1017.4
20260508102724 42 156 2.0 2.0 0.00 0.00 0.00 99 1017.2
20260508102222 42 151 2.0 2.0 0.00 0.00 0.00 99 1017.3
20260508101719 42 141 2.0 2.0 0.00 0.00 0.00 99 1017.3
20260508101216 42 141 2.0 3.0 0.00 0.00 0.00 99 1017.0
20260508100714 43 148 2.0 2.0 0.00 0.00 0.00 99 1017.1
20260508100212 43 148 2.0 2.0 0.00 0.00 0.00 99 1017.0
20260508095708 43 148 2.0 2.0 0.00 0.00 0.00 99 1017.0
20260508095206 43 131 2.0 2.0 0.00 0.00 0.00 99 1016.8
20260508094702 43 151 2.0 3.0 0.00 0.00 0.00 99 1016.9
20260508094159 43 158 2.0 2.0 0.00 0.00 0.00 99 1016.9
20260508093656 44 152 2.0 3.0 0.00 0.00 0.00 99 1016.9
20260508093154 44 156 1.0 3.0 0.00 0.00 0.00 99 1016.7
20260508092651 44 145 2.0 3.0 0.00 0.00 0.00 99 1016.7
20260508092149 44 149 2.0 3.0 0.00 0.00 0.00 99 1016.4
20260508091646 44 140 2.0 3.0 0.00 0.00 0.00 99 1016.4
20260508091143 43 143 2.0 3.0 0.00 0.00 0.00 99 1016.4
20260508090641 43 154 2.0 2.0 0.00 0.00 0.00 99 1016.3
20260508090138 43 150 2.0 2.0 0.00 0.00 0.00 99 1016.4
20260508085634 43 150 2.0 2.0 0.00 0.00 0.00 99 1016.5
20260508085132 43 146 2.0 3.0 0.00 0.00 0.00 99 1016.0
20260508084628 42 136 2.0 3.0 0.00 0.00 0.00 99 1016.2
20260508084125 42 136 2.0 3.0 0.00 0.00 0.00 99 1016.2
20260508083622 42 150 2.0 2.0 0.00 0.00 0.00 99 1016.1
20260508083119 41 172 2.0 2.0 0.00 0.00 0.00 99 1016.1
20260508082615 41 149 2.0 3.0 0.00 0.00 0.00 99 1016.0
20260508082112 42 165 3.0 3.0 0.00 0.00 0.00 99 1015.9
20260508081610 42 152 2.0 3.0 0.00 0.00 0.00 99 1015.7
20260508081106 42 143 3.0 3.0 0.00 0.00 0.00 99 1015.6
20260508080604 42 144 2.0 3.0 0.00 0.00 0.00 99 1015.6
20260508075557 43 151 2.0 2.0 0.00 0.00 0.00 99 1015.7
20260508075055 43 156 2.0 2.0 0.00 0.00 0.00 99 1015.6
20260508074553 43 148 2.0 2.0 0.00 0.00 0.00 99 1015.7
20260508074049 43 139 2.0 2.0 0.00 0.00 0.00 99 1015.5
20260508073546 43 147 2.0 2.0 0.00 0.00 0.00 99 1015.6
20260508073044 43 145 2.0 2.0 0.00 0.00 0.00 99 1015.6
20260508072539 43 146 2.0 2.0 0.00 0.00 0.00 99 1015.6
20260508072037 43 135 2.0 2.0 0.00 0.00 0.00 99 1015.5
20260508071535 43 139 1.0 2.0 0.00 0.00 0.00 99 1015.4
20260508071032 43 134 2.0 2.0 0.00 0.00 0.00 99 1015.3
20260508070530 43 139 2.0 3.0 0.00 0.00 0.00 99 1015.4
20260508070028 44 145 2.0 2.0 0.00 0.00 0.00 99 1015.2
20260508065525 44 156 2.0 3.0 0.00 0.00 0.00 99 1015.2
20260508065023 44 144 2.0 2.0 0.00 0.00 0.00 99 1015.3
20260508064520 44 149 3.0 3.0 0.00 0.00 0.00 99 1015.4
20260508064018 44 153 2.0 2.0 0.00 0.00 0.00 99 1015.2
20260508063515 44 152 2.0 3.0 0.00 0.00 0.00 99 1015.3
20260508063013 44 159 2.0 2.0 0.00 0.00 0.00 99 1015.2
20260508062510 45 154 2.0 2.0 0.00 0.00 0.00 99 1015.0
20260508062007 45 156 2.0 2.0 0.00 0.00 0.00 99 1015.1
20260508061505 45 148 2.0 2.0 0.00 0.00 0.00 99 1015.0
20260508061002 46 151 2.0 2.0 0.00 0.00 0.00 99 1015.0
20260508060459 46 161 2.0 2.0 0.00 0.00 0.00 99 1014.8
20260508055954 46 135 2.0 2.0 0.00 0.00 0.00 99 1015.0
20260508055451 46 136 2.0 2.0 0.00 0.00 0.00 99 1015.0
20260508054948 46 145 2.0 2.0 0.00 0.00 0.00 99 1014.9
20260508054445 46 161 2.0 2.0 0.00 0.00 0.00 99 1014.9
20260508053942 46 146 2.0 2.0 0.00 0.00 0.00 99 1014.7
20260508053439 46 152 2.0 2.0 0.00 0.00 0.00 99 1014.6
20260508052937 46 145 2.0 2.0 0.00 0.00 0.00 99 1014.9
20260508052434 46 138 1.0 2.0 0.00 0.00 0.00 99 1014.7
20260508051930 46 149 2.0 2.0 0.00 0.00 0.00 99 1014.5
20260508051426 46 151 2.0 2.0 0.00 0.00 0.00 99 1014.9
20260508050922 47 147 2.0 3.0 0.00 0.00 0.00 99 1014.8
20260508050419 47 144 2.0 2.0 0.00 0.00 0.00 99 1014.6
20260508045915 47 141 2.0 2.0 0.00 0.00 0.00 99 1014.9
20260508045413 47 138 1.0 2.0 0.00 0.00 0.00 99 1014.6
20260508044910 47 133 1.0 2.0 0.00 0.00 0.00 99 1014.7
20260508044407 47 139 2.0 2.0 0.00 0.00 0.00 99 1014.4
20260508043902 48 143 2.0 2.0 0.00 0.00 0.00 99 1014.3
20260508043400 48 143 1.0 2.0 0.00 0.00 0.00 99 1014.3
20260508042856 48 155 2.0 2.0 0.00 0.00 0.00 98 1014.4
20260508042354 48 153 2.0 2.0 0.00 0.00 0.00 99 1014.6
20260508041851 48 154 2.0 2.0 0.00 0.00 0.00 99 1014.6
20260508041347 48 148 2.0 2.0 0.00 0.00 0.00 98 1014.3
20260508040844 48 146 2.0 2.0 0.00 0.00 0.00 98 1014.1
20260508040341 49 145 2.0 2.0 0.00 0.00 0.00 99 1014.5
20260508035839 49 154 2.0 2.0 0.00 0.08 0.08 99 1014.3
20260508035336 49 140 1.0 2.0 0.00 0.08 0.08 99 1014.3
20260508034833 49 137 2.0 2.0 0.00 0.08 0.08 99 1014.3
20260508034330 49 135 2.0 2.0 0.00 0.08 0.08 98 1014.3
20260508033826 49 154 2.0 2.0 0.00 0.08 0.08 98 1014.1
20260508033325 50 137 2.0 2.0 0.00 0.08 0.08 98 1014.1
20260508032822 50 139 2.0 2.0 0.00 0.08 0.08 98 1014.2
20260508032319 50 150 2.0 3.0 0.00 0.08 0.08 99 1014.2
20260508031816 49 165 1.0 2.0 0.00 0.08 0.08 98 1014.3
20260508031313 49 152 2.0 2.0 0.00 0.08 0.08 98 1014.1
20260508030809 49 137 2.0 2.0 0.00 0.08 0.08 98 1014.3
20260508030306 49 145 2.0 2.0 0.00 0.08 0.08 98 1014.1
20260508025802 49 150 2.0 3.0 0.00 0.08 0.08 98 1014.3
20260508025300 49 149 2.0 2.0 0.00 0.08 0.08 98 1014.0
20260508024756 50 148 2.0 3.0 0.00 0.08 0.08 98 1013.8
20260508024253 50 143 2.0 2.0 0.00 0.08 0.08 98 1013.9
20260508023750 50 150 2.0 3.0 0.00 0.08 0.08 98 1013.8
20260508023247 50 155 2.0 3.0 0.00 0.08 0.08 98 1013.9
20260508022743 50 142 2.0 2.0 0.00 0.08 0.08 98 1014.0
20260508022240 50 146 2.0 2.0 0.00 0.08 0.08 98 1013.7
20260508021737 50 146 2.0 3.0 0.00 0.08 0.08 98 1013.8
20260508021232 50 140 2.0 3.0 0.00 0.08 0.08 98 1013.9
20260508020729 50 142 2.0 3.0 0.00 0.08 0.08 98 1013.8
20260508020227 50 147 2.0 2.0 0.00 0.08 0.08 98 1013.7
20260508015724 50 151 2.0 3.0 0.00 0.08 0.08 97 1013.5
20260508015221 50 151 2.0 2.0 0.00 0.08 0.08 97 1013.5
20260508014717 50 151 2.0 3.0 0.00 0.08 0.08 97 1013.5
20260508014214 50 148 2.0 2.0 0.00 0.08 0.08 97 1013.4
20260508013710 50 141 2.0 2.0 0.00 0.08 0.08 97 1013.3
20260508013206 50 149 2.0 2.0 0.00 0.08 0.08 97 1013.5
20260508012705 50 148 2.0 2.0 0.00 0.08 0.08 97 1013.5
20260508012201 50 150 2.0 2.0 0.00 0.08 0.08 97 1013.8
20260508011659 51 145 2.0 2.0 0.00 0.08 0.08 97 1013.4
20260508011156 51 149 2.0 2.0 0.00 0.08 0.08 97 1013.5
20260508010653 51 145 2.0 2.0 0.00 0.08 0.08 97 1013.5
20260508010151 51 153 2.0 3.0 0.00 0.08 0.08 97 1013.6
20260508005647 51 145 2.0 2.0 0.00 0.08 0.08 96 1013.5
20260508005139 51 149 2.0 2.0 0.00 0.08 0.08 96 1013.3
20260508004634 51 153 2.0 3.0 0.00 0.08 0.08 96 1013.3
20260508004131 52 138 2.0 2.0 0.00 0.08 0.08 96 1013.4
20260508003627 52 139 2.0 2.0 0.00 0.08 0.08 96 1013.3
20260508003125 52 153 2.0 2.0 0.00 0.08 0.08 96 1013.2
20260508002621 52 149 2.0 2.0 0.00 0.08 0.08 96 1013.1
20260508002120 52 129 2.0 2.0 0.00 0.08 0.08 96 1012.9
20260508001614 52 146 2.0 2.0 0.00 0.08 0.08 95 1013.2
20260508001111 52 142 2.0 2.0 0.00 0.08 0.08 95 1013.1
20260508000606 53 146 2.0 2.0 0.00 0.08 0.08 95 1013.2
20260508000104 53 150 2.0 2.0 0.00 0.08 0.08 94 1012.9
20260507235600 53 146 2.0 2.0 0.00 0.08 0.08 94 1012.8
20260507235058 53 146 2.0 2.0 0.00 0.08 0.08 94 1012.5
20260507234554 53 155 2.0 2.0 0.00 0.08 0.08 94 1012.4
20260507234051 53 149 2.0 2.0 0.00 0.08 0.08 94 1012.5
20260507233547 53 151 2.0 2.0 0.00 0.08 0.08 94 1012.4
20260507233046 53 151 2.0 2.0 0.00 0.08 0.08 94 1012.4
20260507232536 53 138 2.0 2.0 0.00 0.08 0.08 93 1012.5
20260507232034 53 152 2.0 2.0 0.00 0.08 0.08 93 1012.4
20260507231530 53 140 2.0 2.0 0.00 0.08 0.08 93 1012.5
20260507231028 53 137 2.0 2.0 0.00 0.08 0.08 93 1012.1
20260507230524 54 130 2.0 2.0 0.00 0.08 0.08 93 1012.1
20260507230021 54 148 2.0 2.0 0.00 0.08 0.08 92 1011.9
20260507225516 54 142 2.0 2.0 0.00 0.08 0.08 92 1012.2
20260507225012 54 143 2.0 2.0 0.00 0.08 0.08 92 1012.0
20260507224508 54 140 2.0 3.0 0.00 0.08 0.08 92 1012.1
20260507224005 54 144 2.0 2.0 0.00 0.08 0.08 92 1012.2
20260507223500 54 140 2.0 2.0 0.00 0.08 0.08 90 1012.0
20260507222958 54 141 2.0 2.0 0.00 0.08 0.08 90 1012.0
20260507222455 54 151 2.0 2.0 0.00 0.08 0.08 91 1012.1
20260507221951 54 145 2.0 3.0 0.00 0.08 0.08 92 1012.1
20260507221448 53 145 2.0 2.0 0.00 0.08 0.08 90 1011.9
20260507220945 54 149 1.0 2.0 0.00 0.08 0.08 91 1011.9
20260507220443 54 124 2.0 2.0 0.00 0.08 0.08 92 1011.9
20260507215939 54 159 1.0 2.0 0.00 0.08 0.08 92 1011.7
20260507215435 54 157 2.0 3.0 0.00 0.08 0.08 92 1011.8
20260507214932 54 132 2.0 3.0 0.00 0.08 0.08 92 1011.8
20260507214430 54 141 2.0 2.0 0.00 0.08 0.08 92 1011.7
20260507213926 54 147 2.0 2.0 0.00 0.08 0.08 93 1011.8
20260507213422 54 141 2.0 2.0 0.00 0.08 0.08 93 1011.9
20260507212919 54 139 2.0 2.0 0.00 0.08 0.08 93 1011.8
20260507212415 54 137 2.0 2.0 0.00 0.08 0.08 93 1011.5
20260507211912 54 129 2.0 2.0 0.00 0.08 0.08 93 1011.2
20260507211409 54 138 2.0 2.0 0.00 0.08 0.08 93 1011.5
20260507210906 54 141 2.0 2.0 0.00 0.08 0.08 94 1011.6
20260507210403 53 135 2.0 3.0 0.00 0.08 0.08 93 1011.6
20260507205859 53 121 2.0 2.0 0.02 0.08 0.08 92 1011.6
20260507205356 53 122 1.0 2.0 0.02 0.08 0.08 94 1011.6
20260507204852 54 128 3.0 3.0 0.02 0.07 0.07 94 1011.9
20260507204349 53 131 1.0 2.0 0.09 0.07 0.07 93 1011.9
20260507203847 54 146 1.0 2.0 0.14 0.07 0.07 92 1011.8
20260507203345 54 145 2.0 3.0 0.09 0.06 0.06 91 1012.4
20260507202840 54 149 2.0 2.0 0.07 0.05 0.05 90 1011.7
20260507202337 54 134 2.0 3.0 0.05 0.04 0.04 89 1011.7
20260507201833 55 131 3.0 3.0 0.02 0.04 0.04 87 1011.9
20260507201328 55 149 2.0 3.0 0.00 0.03 0.03 84 1011.8
20260507200825 56 146 2.0 2.0 0.02 0.03 0.03 85 1011.9
20260507200321 56 151 2.0 3.0 0.02 0.03 0.03 84 1011.9
20260507195817 56 133 2.0 2.0 0.02 0.03 0.03 83 1012.1
20260507195315 56 187 2.0 2.0 0.00 0.02 0.02 82 1012.3
20260507194812 56 128 2.0 2.0 0.00 0.02 0.02 79 1012.5
20260507194308 56 140 2.0 2.0 0.00 0.02 0.02 79 1012.3
20260507193804 56 147 2.0 2.0 0.00 0.02 0.02 80 1012.0
20260507193301 56 140 2.0 3.0 0.00 0.02 0.02 76 1012.2
20260507192757 57 157 2.0 3.0 0.00 0.02 0.02 77 1012.3
20260507192254 57 136 2.0 4.0 0.00 0.02 0.02 74 1012.1
20260507191750 57 152 2.0 3.0 0.00 0.02 0.02 73 1012.1
20260507191247 57 154 2.0 3.0 0.00 0.02 0.02 71 1012.5
20260507190744 57 143 1.0 2.0 0.00 0.02 0.02 72 1012.5
20260507190243 57 154 3.0 3.0 0.00 0.02 0.02 71 1012.1
20260507185741 57 208 3.0 3.0 0.00 0.02 0.02 71 1012.4
20260507185237 57 83 1.0 3.0 0.00 0.02 0.02 72 1012.2
20260507184735 57 169 2.0 3.0 0.00 0.02 0.02 71 1012.4
20260507184232 57 77 0.0 3.0 0.00 0.02 0.02 71 1012.5
20260507183723 57 140 1.0 3.0 0.00 0.02 0.02 72 1012.4
20260507183220 57 146 1.0 3.0 0.00 0.02 0.02 72 1012.3
20260507182718 57 216 1.0 3.0 0.00 0.02 0.02 71 1012.4
20260507182212 57 75 1.0 4.0 0.00 0.02 0.02 72 1012.4
20260507181710 57 104 3.0 3.0 0.00 0.02 0.02 73 1012.6
20260507181206 57 175 1.0 3.0 0.00 0.02 0.02 72 1012.5
20260507180702 57 141 0.0 3.0 0.00 0.02 0.02 72 1012.4
20260507180200 57 141 2.0 3.0 0.00 0.02 0.02 73 1012.3
20260507175655 57 148 2.0 3.0 0.00 0.02 0.02 73 1012.5
20260507175153 57 238 3.0 3.0 0.00 0.02 0.02 72 1012.4
20260507174650 57 113 2.0 2.0 0.00 0.02 0.02 73 1012.8
20260507174148 57 163 2.0 4.0 0.00 0.02 0.02 71 1012.6